This demonstration page uses our WeatherBlox Daily Observations layout. Learn more.

Left ArrowRight Arrow

39.08367, -84.50855

Hourly Observations for March 29, 2020

Temp ( °F °C ) Dew Point ( °F °C ) Humidity (%) Winds ( mph kmh ) Pressure ( in mb ) Visibility ( mi km ) Precip ( " mm )
12:03 am 00:03 Cloudy with Thunderstorms 69 20.6 64 17.8 84 84 SW 12 19 29.80 1009 4 6 0.03 0.76
12:31 am 00:31 Cloudy with Strong Thunderstorms 67 19.4 65 18.3 93 93 SW 29 46 29.84 1010 1 2 0.32 8.13
12:36 am 00:36 Cloudy with Strong Thunderstorms 65 18.3 63 17.2 93 93 WSW 17 28 29.78 1009 1 1 0.42 10.67
12:39 am 00:39 Cloudy with Strong Thunderstorms 66 18.9 62 16.7 87 87 SSW 12 19 29.76 1008 1 2 0.43 10.92
12:43 am 00:43 Cloudy with Thunderstorms 65 18.3 62 16.7 90 90 S 9 15 29.75 1008 3 5 0.43 10.92
12:53 am 00:53 Partly Cloudy with Nearby Thunderstorms 65 18.3 62 16.7 90 90 S 7 11 29.75 1007 10 16 0.43 10.92
1:05 am 01:05 Mostly Clear 64 17.8 62 16.7 93 93 W 3 6 29.74 1007 10 16 0.00 0.00
1:53 am 01:53 Partly Cloudy 62 16.7 62 16.7 100 100 SSE 3 6 29.73 1007 8 13 0.00 0.00
2:53 am 02:53 Partly Cloudy 65 18.3 62 16.7 90 90 S 7 11 29.68 1005 10 16 N/A
3:53 am 03:53 Clear 65 18.3 61 16.1 87 87 S 10 17 29.66 1004 10 16 0.00 0.00
4:53 am 04:53 Mostly Cloudy with Light Rain 67 19.4 60 15.6 79 79 SSW 15 24 29.64 1004 10 16 0.00 0.00
5:53 am 05:53 Mostly Cloudy 67 19.4 60 15.6 79 79 SSW 15 24 29.65 1004 10 16 0.00 0.00
6:53 am 06:53 Mostly Clear 67 19.4 59 15 76 76 SSW 21 33 29.67 1005 10 16 N/A
7:53 am 07:53 Mostly Cloudy 66 18.9 58 14.4 75 75 SW 13 20 29.68 1005 10 16 N/A
8:53 am 08:53 Sunny 66 18.9 53 11.7 63 63 SW 16 26 29.69 1006 10 16 N/A
9:53 am 09:53 Mostly Sunny 67 19.4 48 8.9 51 51 WSW 23 37 29.71 1006 10 16 N/A
10:53 am 10:53 Sunny 67 19.4 41 5 39 39 SW 18 30 29.75 1007 10 16 N/A
11:53 am 11:53 Mostly Sunny 67 19.4 42 5.6 41 41 SW 21 33 29.78 1008 10 16 N/A
12:53 pm 12:53 Mostly Cloudy 67 19.4 44 6.7 44 44 WSW 18 30 29.80 1009 10 16 N/A
1:53 pm 13:53 Mostly Sunny 66 18.9 45 7.2 47 47 SW 23 37 29.84 1011 10 16 N/A
2:53 pm 14:53 Sunny 66 18.9 42 5.6 42 42 WSW 29 46 29.85 1011 10 16 N/A
3:53 pm 15:53 Sunny 67 19.4 43 6.1 42 42 WSW 16 26 29.86 1011 10 16 N/A
4:53 pm 16:53 Sunny 67 19.4 41 5 39 39 WSW 21 33 29.88 1012 10 16 N/A
5:53 pm 17:53 Sunny 67 19.4 39 3.9 36 36 WSW 21 33 29.89 1012 10 16 N/A
6:53 pm 18:53 Sunny 65 18.3 38 3.3 37 37 WSW 20 31 29.91 1013 10 16 N/A
7:53 pm 19:53 Sunny 62 16.7 37 2.8 40 40 WSW 14 22 29.93 1014 10 16 N/A
8:53 pm 20:53 Clear 62 16.7 37 2.8 40 40 WSW 17 28 29.97 1015 10 16 N/A
9:53 pm 21:53 Clear 61 16.1 36 2.2 39 39 WSW 15 24 30.00 1016 10 16 N/A
10:53 pm 22:53 Clear 59 15 33 0.6 38 38 WSW 12 19 30.01 1016 10 16 N/A
11:53 pm 23:53 Clear 56 13.3 33 0.6 42 42 SW 10 17 30.02 1017 10 16 N/A

Powered by AerisWeather